Weather History for KVPZ - March, 2014

Change the Weather History Date:

Saturday, March 15, 2014

  Actual Average Record
Temperature  
Mean Temperature 34 °F 37 °F  
Max Temperature 40 °F 46 °F 81 °F (2012)
Min Temperature 27 °F 29 °F -2 °F (1993)
Degree Days  
Heating Degree Days 31 28  
Month to date heating degree days 498 453  
Since 1 July heating degree days 5947 5185  
Cooling Degree Days 0 0  
Month to date cooling degree days 0 0  
Year to date cooling degree days 0 0  
Moisture  
Dew Point 25 °F    
Average Humidity 74    
Maximum Humidity 89    
Minimum Humidity 61    
Precipitation  
Precipitation 0.00 in 0.08 in 1.92 in (1929)
Month to date precipitation 0.15 1.12  
Year to date precipitation 2.78 4.29  
Sea Level Pressure  
Sea Level Pressure 30.10 in    
Wind  
Wind Speed 8 mph (North)    
Max Wind Speed 15 mph    
Max Gust Speed 22 mph    
Visibility 10 miles    
Events      
T = Trace of Precipitation, MM = Missing Value Source: NWS Daily Summary

Daily Weather History Graph

Daily Weather History Graph

Search for Another Location

Airport or City:

Trip Planner

Search our weather history database for the weather conditions in past years. The results will help you decide how hot, cold, wet, or windy it might be!

Date:

Astronomy

Mar. 15, 2014 Rise Set
Actual Time 6:59 AM CDT 6:54 PM CDT
Civil Twilight 6:32 AM CDT 7:22 PM CDT
Nautical Twilight 6:00 AM CDT 7:54 PM CDT
Astronomical Twilight 5:27 AM CDT 8:27 PM CDT
Moon 6:13 PM CDT (3/15) 6:11 AM CDT (3/15)
Length of Visible Light 12h 50m
Length of Day
11h 54m
Waxing Gibbous, 99% of the Moon is Illuminated
Mar 15
Waxing Gibbous
Mar 16
Full
Mar 23
Last Quarter
Mar 30
New
Apr 7
First Quarter

Hourly Weather History & Observations

Time (CDT) Temp. Windchill Dew Point Humidity Pressure Visibility Wind Dir Wind Speed Gust Speed Precip Events Conditions
12:53 AM 35.1 °F 26.4 °F 28.9 °F 78% 29.88 in 10.0 mi West 12.7 mph - N/A   Scattered Clouds
1:53 AM 34.0 °F 26.0 °F 28.9 °F 82% 29.90 in 10.0 mi West 10.4 mph - N/A   Clear
2:53 AM 33.1 °F 24.9 °F 28.9 °F 85% 29.91 in 10.0 mi West 10.4 mph - N/A   Clear
3:53 AM 33.1 °F 26.1 °F 28.0 °F 82% 29.92 in 10.0 mi West 8.1 mph - N/A   Clear
4:53 AM 32.0 °F 25.6 °F 28.0 °F 85% 29.94 in 10.0 mi West 6.9 mph - N/A   Clear
5:53 AM 30.9 °F 24.3 °F 28.0 °F 89% 29.97 in 10.0 mi West 6.9 mph - N/A   Clear
6:53 AM 30.9 °F 24.3 °F 28.0 °F 89% 30.00 in 10.0 mi WNW 6.9 mph - N/A   Clear
7:53 AM 33.1 °F 26.1 °F 25.0 °F 72% 30.02 in 10.0 mi NNW 8.1 mph - N/A   Clear
8:53 AM 34.0 °F 26.6 °F 21.9 °F 61% 30.05 in 10.0 mi NW 9.2 mph - N/A   Clear
9:53 AM 35.1 °F 27.9 °F 24.1 °F 64% 30.08 in 10.0 mi NNW 9.2 mph - N/A   Clear
10:53 AM 35.1 °F 30.1 °F 25.0 °F 67% 30.11 in 10.0 mi North 5.8 mph - N/A   Mostly Cloudy
11:53 AM 36.0 °F 33.3 °F 26.1 °F 67% 30.14 in 10.0 mi Variable 3.5 mph - N/A   Overcast
12:40 PM 37.0 °F 32.4 °F 26.1 °F 65% 30.12 in 10.0 mi NNE 5.8 mph - N/A   Overcast
12:53 PM 37.9 °F 33.5 °F 27.0 °F 65% 30.14 in 10.0 mi NNE 5.8 mph - N/A   Overcast
1:53 PM 37.9 °F 33.5 °F 26.1 °F 62% 30.14 in 10.0 mi NE 5.8 mph - N/A   Overcast
2:53 PM 37.9 °F 33.5 °F 27.0 °F 65% 30.14 in 10.0 mi North 5.8 mph - N/A   Overcast
3:53 PM 37.0 °F 31.0 °F 27.0 °F 67% 30.15 in 10.0 mi NNE 8.1 mph - N/A   Overcast
4:53 PM 33.1 °F 26.1 °F 26.1 °F 75% 30.16 in 10.0 mi NNE 8.1 mph - N/A   Overcast
5:53 PM 32.0 °F 26.4 °F 25.0 °F 75% 30.18 in 10.0 mi NNE 5.8 mph - N/A   Overcast
6:53 PM 30.9 °F 25.2 °F 24.1 °F 76% 30.20 in 10.0 mi NE 5.8 mph - N/A   Mostly Cloudy
7:53 PM 30.0 °F 23.2 °F 23.0 °F 75% 30.22 in 10.0 mi NNE 6.9 mph - N/A   Partly Cloudy
8:53 PM 28.9 °F 22.8 °F 21.9 °F 75% 30.25 in 10.0 mi NE 5.8 mph - N/A   Clear
9:53 PM 28.0 °F 20.0 °F 19.9 °F 72% 30.26 in 10.0 mi NNE 8.1 mph - N/A   Partly Cloudy
10:53 PM 27.0 °F 15.6 °F 19.9 °F 75% 30.24 in 10.0 mi NNE 13.8 mph 21.9 mph N/A   Clear
11:53 PM 28.0 °F 18.6 °F 21.0 °F 75% 30.26 in 10.0 mi NE 10.4 mph - N/A   Overcast